GW5874 Weather Reports


time (UTC)temp
C
wind
direction
speed
KPH
gust
KPH
rain 1hr
cm
rain 24hr
cm
rain mn
cm
humidity
%
barometer
mb
20260905184230 37 217 1.6 1.6 0.00 0.00 0.00 38 1014.5
20260905183729 37 55 6.4 6.4 0.00 0.00 0.00 37 1014.5
20260905183225 37 208 6.4 8.0 0.00 0.00 0.00 37 1014.5
20260905182724 37 264 3.2 6.4 0.00 0.00 0.00 38 1014.7
20260905182224 37 195 3.2 4.8 0.00 0.00 0.00 38 1014.8
20260905181719 38 351 3.2 4.8 0.00 0.00 0.00 36 1014.9
20260905181218 39 17 3.2 6.4 0.00 0.00 0.00 36 1014.9
20260905180713 38 219 4.8 6.4 0.00 0.00 0.00 37 1015.2
20260905180209 38 44 4.8 8.0 0.00 0.00 0.00 37 1015.1
20260905175708 37 258 3.2 4.8 0.00 0.00 0.00 39 1015.1
20260905175203 37 34 6.4 6.4 0.00 0.00 0.00 39 1015.0
20260905174658 37 208 1.6 4.8 0.00 0.00 0.00 39 1015.1
20260905174154 36 76 9.7 11.3 0.00 0.00 0.00 40 1015.2
20260905173650 36 48 4.8 6.4 0.00 0.00 0.00 42 1015.1
20260905173145 35 102 9.7 11.3 0.00 0.00 0.00 43 1015.3
20260905172644 37 129 8.0 8.0 0.00 0.00 0.00 40 1015.4
20260905172139 38 185 4.8 6.4 0.00 0.00 0.00 39 1015.5
20260905171635 37 216 1.6 1.6 0.00 0.00 0.00 40 1015.6
20260905171131 37 217 4.8 6.4 0.00 0.00 0.00 39 1015.6
20260905170627 36 58 3.2 4.8 0.00 0.00 0.00 42 1015.6
20260905170123 37 245 1.6 1.6 0.00 0.00 0.00 41 1015.7
20260905165617 36 270 3.2 4.8 0.00 0.00 0.00 41 1015.8
20260905165113 37 278 3.2 4.8 0.00 0.00 0.00 41 1015.6
20260905164608 37 295 3.2 4.8 0.00 0.00 0.00 40 1015.8
20260905164107 37 271 3.2 4.8 0.00 0.00 0.00 40 1015.8
20260905163603 36 262 1.6 1.6 0.00 0.00 0.00 41 1015.7
20260905163059 36 201 3.2 4.8 0.00 0.00 0.00 42 1015.8
20260905162555 37 245 3.2 4.8 0.00 0.00 0.00 42 1016.1
20260905162055 36 289 1.6 1.6 0.00 0.00 0.00 42 1016.1
20260905161555 36 280 3.2 4.8 0.00 0.00 0.00 43 1015.9
20260905161053 36 305 3.2 4.8 0.00 0.00 0.00 45 1016.1
20260905160552 35 234 1.6 1.6 0.00 0.00 0.00 46 1015.8
20260905160051 36 252 1.6 1.6 0.00 0.00 0.00 44 1015.9
20260905155551 35 231 0.0 0.0 0.00 0.00 0.00 45 1015.9
20260905155050 35 301 4.8 6.4 0.00 0.00 0.00 46 1015.8
20260905154545 35 297 3.2 4.8 0.00 0.00 0.00 46 1015.9
20260905154041 35 291 3.2 4.8 0.00 0.00 0.00 47 1015.8
20260905153537 35 279 3.2 4.8 0.00 0.00 0.00 46 1015.9
20260905153036 35 228 3.2 4.8 0.00 0.00 0.00 47 1015.7
20260905152531 35 214 4.8 6.4 0.00 0.00 0.00 48 1015.8
20260905152026 33 249 4.8 6.4 0.00 0.00 0.00 51 1015.9
20260905151521 33 218 3.2 4.8 0.00 0.00 0.00 50 1015.8
20260905151017 33 174 4.8 4.8 0.00 0.00 0.00 51 1015.8
20260905150512 32 251 1.6 1.6 0.00 0.00 0.00 53 1015.8
20260905150010 32 207 4.8 6.4 0.00 0.00 0.00 54 1015.8
20260905145503 32 202 3.2 6.4 0.00 0.00 0.00 56 1015.8
20260905145002 32 228 0.0 0.0 0.00 0.00 0.00 55 1015.7
20260905144458 32 200 0.0 0.0 0.00 0.00 0.00 55 1015.7
20260905143956 32 233 0.0 0.0 0.00 0.00 0.00 56 1015.8
20260905143455 31 214 0.0 0.0 0.00 0.00 0.00 56 1015.8
20260905142951 31 281 0.0 0.0 0.00 0.00 0.00 57 1015.6
20260905142449 31 210 0.0 0.0 0.00 0.00 0.00 56 1015.7
20260905141945 31 248 0.0 0.0 0.00 0.00 0.00 59 1015.6
20260905141439 30 331 0.0 0.0 0.00 0.00 0.00 61 1015.6
20260905140936 30 178 0.0 0.0 0.00 0.00 0.00 62 1015.6
20260905140431 30 187 0.0 0.0 0.00 0.00 0.00 62 1015.9
20260905135930 30 195 0.0 0.0 0.00 0.00 0.00 64 1015.6
20260905135425 29 192 0.0 0.0 0.00 0.00 0.00 65 1015.7
20260905134921 28 245 0.0 0.0 0.00 0.00 0.00 68 1015.6
20260905134420 27 240 0.0 0.0 0.00 0.00 0.00 71 1015.7
20260905133915 27 304 0.0 0.0 0.00 0.00 0.00 72 1015.6
20260905133415 27 272 0.0 0.0 0.00 0.00 0.00 72 1015.6
20260905132914 27 243 0.0 0.0 0.00 0.00 0.00 71 1015.6
20260905132409 27 217 0.0 0.0 0.00 0.00 0.00 73 1015.5
20260905131904 26 216 0.0 0.0 0.00 0.00 0.00 76 1015.5
20260905131400 25 278 0.0 0.0 0.00 0.00 0.00 79 1015.5
20260905130855 24 254 0.0 0.0 0.00 0.00 0.00 84 1015.3
20260905130354 23 272 0.0 0.0 0.00 0.00 0.00 89 1015.5
20260905125849 22 280 0.0 0.0 0.00 0.00 0.00 92 1015.5
20260905125344 21 275 0.0 0.0 0.00 0.00 0.00 93 1015.4
20260905124840 21 267 0.0 0.0 0.00 0.00 0.00 93 1015.5
20260905124336 21 267 0.0 0.0 0.00 0.00 0.00 94 1015.1
20260905123836 21 281 0.0 0.0 0.00 0.00 0.00 94 1015.5
20260905123333 21 276 0.0 0.0 0.00 0.00 0.00 94 1015.3
20260905122833 21 264 0.0 0.0 0.00 0.00 0.00 94 1015.2
20260905122332 21 253 0.0 0.0 0.00 0.00 0.00 94 1015.3
20260905121827 20 265 0.0 0.0 0.00 0.00 0.00 95 1015.2
20260905121324 20 277 0.0 0.0 0.00 0.00 0.00 95 1015.2
20260905120822 20 283 0.0 0.0 0.00 0.00 0.00 95 1015.3
20260905120317 20 274 0.0 0.0 0.00 0.00 0.00 95 1015.3
20260905115812 20 266 0.0 0.0 0.00 0.00 0.00 95 1014.9
20260905115311 20 264 0.0 0.0 0.00 0.00 0.00 95 1015.1
20260905114811 20 269 0.0 0.0 0.00 0.00 0.00 95 1014.8
20260905114310 20 260 0.0 0.0 0.00 0.00 0.00 95 1014.9
20260905113810 20 253 0.0 0.0 0.00 0.00 0.00 95 1014.8
20260905113306 20 271 0.0 0.0 0.00 0.00 0.00 95 1014.7
20260905112801 20 270 0.0 0.0 0.00 0.00 0.00 95 1014.9
20260905112256 20 274 0.0 0.0 0.00 0.00 0.00 95 1014.8
20260905111751 20 273 0.0 0.0 0.00 0.00 0.00 95 1014.8
20260905111251 20 265 0.0 0.0 0.00 0.00 0.00 94 1014.8
20260905110750 20 237 0.0 0.0 0.00 0.00 0.00 94 1014.6
20260905110244 20 272 0.0 0.0 0.00 0.00 0.00 94 1014.8
20260905105740 20 270 0.0 0.0 0.00 0.00 0.00 94 1014.8
20260905105239 20 276 0.0 0.0 0.00 0.00 0.00 94 1014.6
20260905104734 20 266 0.0 0.0 0.00 0.00 0.00 94 1014.5
20260905104230 20 257 0.0 0.0 0.00 0.00 0.00 94 1014.5
20260905103724 20 275 0.0 0.0 0.00 0.00 0.00 94 1014.6
20260905103220 21 275 0.0 0.0 0.00 0.00 0.00 94 1014.5
20260905102716 21 276 0.0 0.0 0.00 0.00 0.00 94 1014.6
20260905102212 21 256 0.0 0.0 0.00 0.00 0.00 93 1014.5
20260905101711 21 270 0.0 0.0 0.00 0.00 0.00 93 1014.5
20260905101209 21 265 0.0 0.0 0.00 0.00 0.00 93 1014.5
20260905100706 21 265 0.0 0.0 0.00 0.00 0.00 93 1014.5
20260905100201 21 265 0.0 0.0 0.00 0.00 0.00 93 1014.4
20260905095700 21 270 0.0 0.0 0.00 0.00 0.00 92 1014.6
20260905095155 21 277 0.0 0.0 0.00 0.00 0.00 92 1014.3
20260905094650 21 280 0.0 0.0 0.00 0.00 0.00 92 1014.4
20260905094149 21 287 0.0 0.0 0.00 0.00 0.00 92 1014.3
20260905093644 21 255 0.0 0.0 0.00 0.00 0.00 92 1014.4
20260905093140 21 274 0.0 0.0 0.00 0.00 0.00 92 1014.5
20260905092640 21 274 0.0 0.0 0.00 0.00 0.00 92 1014.3
20260905092136 21 278 0.0 0.0 0.00 0.00 0.00 92 1014.3
20260905091636 21 265 0.0 0.0 0.00 0.00 0.00 92 1014.4
20260905091135 21 264 0.0 0.0 0.00 0.00 0.00 91 1014.4
20260905090630 21 260 0.0 0.0 0.00 0.00 0.00 91 1014.4
20260905090126 21 258 0.0 0.0 0.00 0.00 0.00 91 1014.2
20260905085624 21 278 0.0 0.0 0.00 0.00 0.00 91 1014.4
20260905085120 21 265 0.0 0.0 0.00 0.00 0.00 91 1014.2
20260905084619 21 260 0.0 0.0 0.00 0.00 0.00 91 1014.2
20260905084115 21 293 0.0 0.0 0.00 0.00 0.00 91 1013.9
20260905083615 21 264 0.0 0.0 0.00 0.00 0.00 91 1014.2
20260905083111 21 250 0.0 0.0 0.00 0.00 0.00 91 1014.2
20260905082606 21 250 0.0 0.0 0.00 0.00 0.00 90 1014.5
20260905082102 21 268 0.0 0.0 0.00 0.00 0.00 90 1014.1
20260905081601 21 274 0.0 0.0 0.00 0.00 0.00 89 1014.1
20260905081057 21 274 0.0 0.0 0.00 0.00 0.00 89 1014.2
20260905080556 22 271 0.0 0.0 0.00 0.00 0.00 89 1014.1
20260905080052 22 259 0.0 0.0 0.00 0.00 0.00 89 1014.1
20260905075550 22 273 0.0 0.0 0.00 0.00 0.00 89 1014.2
20260905075050 22 276 0.0 0.0 0.00 0.00 0.00 89 1014.1
20260905074550 22 260 0.0 0.0 0.00 0.00 0.00 89 1014.3
20260905074046 22 261 0.0 0.0 0.00 0.00 0.00 88 1014.1
20260905073541 22 261 0.0 0.0 0.00 0.00 0.00 87 1014.2
20260905073037 22 288 0.0 0.0 0.00 0.00 0.00 87 1014.1
20260905072536 22 284 0.0 0.0 0.00 0.00 0.00 86 1014.4
20260905072032 22 279 0.0 0.0 0.00 0.00 0.00 86 1014.1
20260905071528 22 278 0.0 0.0 0.00 0.00 0.00 86 1014.2
20260905071028 22 289 0.0 0.0 0.00 0.00 0.00 86 1014.2
20260905070523 22 290 0.0 0.0 0.00 0.00 0.00 86 1014.3
20260905070019 22 284 0.0 0.0 0.00 0.00 0.00 87 1014.4
20260905065517 22 281 0.0 0.0 0.00 0.00 0.00 87 1014.5
20260905065012 22 245 0.0 0.0 0.00 0.00 0.00 87 1014.5
20260905064507 22 256 0.0 0.0 0.00 0.00 0.00 86 1014.5
20260905064002 22 267 0.0 0.0 0.00 0.00 0.00 86 1014.6
20260905063456 22 277 0.0 0.0 0.00 0.00 0.00 86 1014.6
20260905062953 22 261 0.0 0.0 0.00 0.00 0.00 86 1014.4
20260905062452 22 234 0.0 0.0 0.00 0.00 0.00 86 1014.5
20260905061947 22 277 0.0 0.0 0.00 0.00 0.00 85 1014.5
20260905061442 22 273 0.0 0.0 0.00 0.00 0.00 85 1014.3
20260905060941 22 269 0.0 0.0 0.00 0.00 0.00 85 1014.3
20260905060438 22 266 0.0 0.0 0.00 0.00 0.00 85 1014.3
20260905055937 23 261 0.0 0.0 0.00 0.00 0.00 84 1014.6
20260905055432 23 277 0.0 0.0 0.00 0.00 0.00 84 1014.4
20260905054931 23 267 0.0 0.0 0.00 0.00 0.00 84 1014.4
20260905054427 23 262 0.0 0.0 0.00 0.00 0.00 83 1014.4
20260905053927 23 242 0.0 0.0 0.00 0.00 0.00 83 1014.6
20260905053422 23 280 0.0 0.0 0.00 0.00 0.00 83 1014.6
20260905052917 23 268 0.0 0.0 0.00 0.00 0.00 82 1014.6
20260905052417 23 285 0.0 0.0 0.00 0.00 0.00 82 1014.4
20260905051916 23 278 0.0 0.0 0.00 0.00 0.00 82 1014.6
20260905051412 23 287 0.0 0.0 0.00 0.00 0.00 82 1014.4
20260905050909 23 286 0.0 0.0 0.00 0.00 0.00 82 1014.6
20260905050405 23 291 0.0 0.0 0.00 0.00 0.00 81 1014.5
20260905045900 23 278 0.0 0.0 0.00 0.00 0.00 81 1014.6
20260905045355 23 287 0.0 0.0 0.00 0.00 0.00 81 1014.6
20260905044850 23 281 0.0 0.0 0.00 0.00 0.00 80 1014.4
20260905044346 24 257 0.0 0.0 0.00 0.00 0.00 80 1014.5
20260905043844 24 172 0.0 0.0 0.00 0.00 0.00 80 1014.5
20260905043339 23 298 0.0 0.0 0.00 0.00 0.00 80 1014.6
20260905042834 23 244 0.0 0.0 0.00 0.00 0.00 80 1014.6
20260905042334 24 243 0.0 0.0 0.00 0.00 0.00 80 1014.5
20260905041829 24 281 0.0 0.0 0.00 0.00 0.00 80 1014.6
20260905041326 24 276 0.0 0.0 0.00 0.00 0.00 80 1014.5
20260905040826 24 249 0.0 0.0 0.00 0.00 0.00 79 1014.6
20260905040324 24 290 0.0 0.0 0.00 0.00 0.00 79 1014.8
20260905035824 24 291 0.0 0.0 0.00 0.00 0.00 79 1014.4
20260905035320 24 267 0.0 0.0 0.00 0.00 0.00 78 1014.4
20260905034816 25 243 0.0 0.0 0.00 0.00 0.00 78 1014.4
20260905034312 25 274 0.0 0.0 0.00 0.00 0.00 77 1014.4
20260905033810 25 273 0.0 0.0 0.00 0.00 0.00 77 1014.5
20260905033306 25 288 0.0 0.0 0.00 0.00 0.00 76 1014.2
20260905032805 25 268 0.0 0.0 0.00 0.00 0.00 76 1014.2
20260905032301 25 270 0.0 0.0 0.00 0.00 0.00 76 1014.2
20260905031755 25 262 0.0 0.0 0.00 0.00 0.00 76 1014.3
20260905031252 25 263 0.0 0.0 0.00 0.00 0.00 75 1014.1
20260905030747 25 259 0.0 0.0 0.00 0.00 0.00 75 1014.1
20260905030242 25 210 0.0 0.0 0.00 0.00 0.00 74 1014.1
20260905025742 25 267 0.0 0.0 0.00 0.00 0.00 74 1014.0
20260905025237 25 269 0.0 0.0 0.00 0.00 0.00 74 1013.9
20260905024733 25 275 0.0 0.0 0.00 0.00 0.00 73 1013.9
20260905024229 25 275 0.0 0.0 0.00 0.00 0.00 73 1013.8
20260905023729 26 274 0.0 0.0 0.00 0.00 0.00 73 1013.9
20260905023224 26 274 0.0 0.0 0.00 0.00 0.00 72 1013.6
20260905022723 25 333 0.0 0.0 0.00 0.00 0.00 73 1013.7
20260905022219 26 318 0.0 0.0 0.00 0.00 0.00 72 1013.7
20260905021719 26 275 0.0 0.0 0.00 0.00 0.00 72 1013.6
20260905021214 26 270 0.0 0.0 0.00 0.00 0.00 71 1013.3
20260905020708 26 270 0.0 0.0 0.00 0.00 0.00 70 1013.4
20260905020204 26 279 0.0 0.0 0.00 0.00 0.00 70 1013.3
20260905015703 26 262 0.0 0.0 0.00 0.00 0.00 68 1013.1
20260905015202 26 284 0.0 0.0 0.00 0.00 0.00 68 1012.8
20260905014701 27 286 0.0 0.0 0.00 0.00 0.00 68 1012.8
20260905014156 27 268 0.0 0.0 0.00 0.00 0.00 67 1013.1
20260905013653 27 267 0.0 0.0 0.00 0.00 0.00 67 1013.0
20260905013149 27 232 0.0 0.0 0.00 0.00 0.00 66 1012.6
20260905012644 27 281 0.0 0.0 0.00 0.00 0.00 65 1012.7
20260905012140 28 218 0.0 0.0 0.00 0.00 0.00 65 1012.7
20260905011636 28 282 0.0 0.0 0.00 0.00 0.00 64 1012.7
20260905011131 28 273 0.0 0.0 0.00 0.00 0.00 63 1012.7
20260905010626 28 296 0.0 0.0 0.00 0.00 0.00 60 1012.6
20260905010122 28 272 0.0 0.0 0.00 0.00 0.00 61 1012.7
20260905005618 29 243 0.0 0.0 0.00 0.00 0.00 59 1012.4
20260905005114 30 290 0.0 0.0 0.00 0.00 0.00 58 1012.4
20260905004613 30 276 0.0 0.0 0.00 0.00 0.00 57 1012.7
20260905004108 31 240 0.0 0.0 0.00 0.00 0.00 55 1012.3
20260905003604 31 291 0.0 0.0 0.00 0.00 0.00 54 1012.5
20260905003100 32 287 0.0 0.0 0.00 0.00 0.00 48 1012.3
20260905002555 32 304 1.6 1.6 0.00 0.00 0.00 47 1012.2
20260905002050 33 231 1.6 1.6 0.00 0.00 0.00 46 1012.5
20260905001545 34 218 1.6 1.6 0.00 0.00 0.00 43 1012.4
20260905001044 35 251 0.0 0.0 0.00 0.00 0.00 40 1012.3
20260905000539 35 235 0.0 0.0 0.00 0.00 0.00 40 1012.4
20260905000036 35 162 3.2 4.8 0.00 0.00 0.00 39 1012.4
20260904235530 35 65 3.2 4.8 0.00 0.00 0.00 41 1012.4
20260904235030 36 212 3.2 4.8 0.00 0.00 0.00 38 1012.4
20260904234530 36 182 1.6 1.6 0.00 0.00 0.00 39 1012.3
20260904234026 36 191 4.8 6.4 0.00 0.00 0.00 38 1012.3
20260904233521 36 99 3.2 4.8 0.00 0.00 0.00 39 1012.2
20260904233017 36 229 3.2 4.8 0.00 0.00 0.00 37 1012.1
20260904232514 36 184 4.8 6.4 0.00 0.00 0.00 37 1012.4
20260904232010 36 120 1.6 4.8 0.00 0.00 0.00 36 1012.4
20260904231506 36 277 1.6 4.8 0.00 0.00 0.00 36 1012.3
20260904231000 36 156 4.8 6.4 0.00 0.00 0.00 36 1012.3
20260904230500 36 150 3.2 4.8 0.00 0.00 0.00 37 1012.4
20260904225955 37 84 3.2 4.8 0.00 0.00 0.00 37 1012.3
20260904225453 36 55 3.2 4.8 0.00 0.00 0.00 37 1012.2
20260904224952 37 64 4.8 6.4 0.00 0.00 0.00 36 1012.4
20260904224448 37 172 4.8 6.4 0.00 0.00 0.00 36 1012.5
20260904223948 37 201 4.8 6.4 0.00 0.00 0.00 35 1012.2
20260904223447 37 96 9.7 12.9 0.00 0.00 0.00 35 1012.4
20260904222943 37 200 3.2 6.4 0.00 0.00 0.00 35 1012.4
20260904222438 37 271 1.6 1.6 0.00 0.00 0.00 34 1012.5
20260904221938 37 196 6.4 8.0 0.00 0.00 0.00 35 1012.6
20260904221432 37 191 12.9 17.7 0.00 0.00 0.00 35 1012.5
20260904220928 37 240 4.8 6.4 0.00 0.00 0.00 34 1012.6
20260904220428 37 270 1.6 1.6 0.00 0.00 0.00 36 1012.6
20260904215923 37 260 3.2 4.8 0.00 0.00 0.00 36 1012.7
20260904215418 37 188 6.4 11.3 0.00 0.00 0.00 35 1012.6
20260904214914 37 215 3.2 4.8 0.00 0.00 0.00 35 1012.8
20260904214409 37 160 3.2 6.4 0.00 0.00 0.00 35 1012.6
20260904213909 37 96 6.4 8.0 0.00 0.00 0.00 34 1013.0
20260904213403 38 85 8.0 12.9 0.00 0.00 0.00 34 1012.8
20260904212859 37 253 4.8 6.4 0.00 0.00 0.00 34 1013.0
20260904212358 37 68 4.8 8.0 0.00 0.00 0.00 36 1013.1
20260904211854 36 229 1.6 1.6 0.00 0.00 0.00 37 1013.1
20260904211349 37 199 8.0 11.3 0.00 0.00 0.00 35 1013.0
20260904210844 37 98 6.4 6.4 0.00 0.00 0.00 36 1013.1
20260904210343 36 255 3.2 4.8 0.00 0.00 0.00 37 1013.1
20260904205839 37 223 3.2 6.4 0.00 0.00 0.00 37 1013.3
20260904205335 37 229 9.7 12.9 0.00 0.00 0.00 36 1013.2
20260904204832 37 208 12.9 16.1 0.00 0.00 0.00 37 1013.4
20260904204327 37 130 6.4 8.0 0.00 0.00 0.00 38 1013.3
20260904203824 37 218 3.2 6.4 0.00 0.00 0.00 38 1013.3
20260904203319 37 251 12.9 16.1 0.00 0.00 0.00 38 1013.3
20260904202815 37 186 6.4 8.0 0.00 0.00 0.00 38 1013.4
20260904202311 37 238 6.4 8.0 0.00 0.00 0.00 39 1013.5
20260904201807 37 191 12.9 17.7 0.00 0.00 0.00 38 1013.6
20260904201301 37 193 9.7 11.3 0.00 0.00 0.00 39 1013.6
20260904200756 38 260 6.4 6.4 0.00 0.00 0.00 37 1013.9
20260904200255 37 215 3.2 4.8 0.00 0.00 0.00 38 1013.7
20260904195755 36 240 4.8 6.4 0.00 0.00 0.00 40 1014.0
20260904195254 36 219 11.3 16.1 0.00 0.00 0.00 40 1014.0
20260904194748 37 246 3.2 4.8 0.00 0.00 0.00 39 1013.8
20260904194247 37 197 9.7 12.9 0.00 0.00 0.00 39 1014.0
20260904193743 36 147 6.4 6.4 0.00 0.00 0.00 40 1014.3
20260904193239 36 352 6.4 8.0 0.00 0.00 0.00 41 1013.9
20260904192734 36 109 6.4 8.0 0.00 0.00 0.00 43 1014.1
20260904192229 36 223 8.0 8.0 0.00 0.00 0.00 42 1014.2
20260904191726 36 185 4.8 6.4 0.00 0.00 0.00 42 1014.3
20260904191222 36 90 3.2 6.4 0.00 0.00 0.00 42 1014.2
20260904190718 36 210 9.7 12.9 0.00 0.00 0.00 41 1014.4
20260904190214 37 109 4.8 6.4 0.00 0.00 0.00 40 1014.5
20260904185710 36 197 3.2 6.4 0.00 0.00 0.00 42 1014.4
20260904185205 36 217 6.4 8.0 0.00 0.00 0.00 42 1014.8